| time (UTC) | temp C | wind direction | speed KPH | gust KPH | rain 1hr cm | rain 24hr cm | rain mn cm | humidity % | barometer mb |
| 20260502211002 | 11 | 341 | 22.5 | 29.0 | 0.00 | 0.00 | 0.00 | 50 | 1013.6 |
| 20260502210503 | 10 | 344 | 12.9 | 27.4 | 0.00 | 0.00 | 0.00 | 48 | 1013.4 |
| 20260502210002 | 11 | 356 | 17.7 | 27.4 | 0.00 | 0.00 | 0.00 | 50 | 1013.5 |
| 20260502205504 | 11 | 320 | 9.7 | 37.0 | 0.00 | 0.00 | 0.00 | 48 | 1013.5 |
| 20260502204002 | 11 | 11 | 16.1 | 27.4 | 0.00 | 0.00 | 0.00 | 49 | 1013.2 |
| 20260502203503 | 11 | 5 | 17.7 | 25.7 | 0.00 | 0.00 | 0.00 | 51 | 1013.2 |
| 20260502203003 | 11 | 2 | 17.7 | 25.7 | 0.00 | 0.00 | 0.00 | 51 | 1013.4 |
| 20260502202502 | 11 | 336 | 12.9 | 22.5 | 0.00 | 0.00 | 0.00 | 48 | 1013.4 |
| 20260502202003 | 11 | 338 | 6.4 | 25.7 | 0.00 | 0.00 | 0.00 | 50 | 1013.4 |
| 20260502201503 | 11 | 326 | 14.5 | 29.0 | 0.00 | 0.00 | 0.00 | 47 | 1013.6 |
| 20260502201003 | 11 | 15 | 17.7 | 29.0 | 0.00 | 0.00 | 0.00 | 49 | 1013.5 |
| 20260502200502 | 11 | 12 | 8.0 | 27.4 | 0.00 | 0.00 | 0.00 | 51 | 1013.3 |
| 20260502195502 | 12 | 349 | 16.1 | 29.0 | 0.00 | 0.00 | 0.00 | 47 | 1013.5 |
| 20260502194503 | 12 | 21 | 20.9 | 29.0 | 0.00 | 0.00 | 0.00 | 47 | 1013.3 |
| 20260502194002 | 12 | 356 | 16.1 | 27.4 | 0.00 | 0.00 | 0.00 | 46 | 1013.4 |
| 20260502193503 | 12 | 356 | 9.7 | 27.4 | 0.00 | 0.00 | 0.00 | 51 | 1013.3 |
| 20260502192502 | 12 | 15 | 19.3 | 27.4 | 0.00 | 0.00 | 0.00 | 47 | 1013.5 |
| 20260502192002 | 12 | 358 | 16.1 | 25.7 | 0.00 | 0.00 | 0.00 | 52 | 1013.5 |
| 20260502191503 | 12 | 17 | 17.7 | 29.0 | 0.00 | 0.00 | 0.00 | 48 | 1013.5 |
| 20260502191004 | 12 | 27 | 11.3 | 29.0 | 0.00 | 0.00 | 0.00 | 45 | 1013.4 |
| 20260502190502 | 12 | 329 | 12.9 | 25.7 | 0.00 | 0.00 | 0.00 | 50 | 1013.4 |
| 20260502190004 | 11 | 276 | 11.3 | 27.4 | 0.00 | 0.00 | 0.00 | 49 | 1013.5 |
| 20260502185502 | 11 | 287 | 9.7 | 33.8 | 0.00 | 0.00 | 0.00 | 48 | 1013.7 |
| 20260502184503 | 12 | 351 | 16.1 | 29.0 | 0.00 | 0.00 | 0.00 | 45 | 1013.8 |
| 20260502184002 | 12 | 7 | 16.1 | 27.4 | 0.00 | 0.00 | 0.00 | 53 | 1013.9 |
| 20260502183502 | 12 | 357 | 16.1 | 24.1 | 0.00 | 0.00 | 0.00 | 50 | 1013.9 |
| 20260502182503 | 12 | 316 | 14.5 | 25.7 | 0.00 | 0.00 | 0.00 | 50 | 1014.0 |
| 20260502182003 | 11 | 3 | 17.7 | 25.7 | 0.00 | 0.00 | 0.00 | 52 | 1013.9 |
| 20260502181502 | 11 | 297 | 3.2 | 19.3 | 0.00 | 0.00 | 0.00 | 51 | 1013.9 |
| 20260502181004 | 11 | 265 | 9.7 | 25.7 | 0.00 | 0.00 | 0.00 | 53 | 1014.0 |
| 20260502180502 | 11 | 347 | 16.1 | 25.7 | 0.00 | 0.00 | 0.00 | 50 | 1014.2 |
| 20260502163503 | 10 | 356 | 8.0 | 24.1 | 0.00 | 0.00 | 0.00 | 50 | 1015.1 |
| 20260502162502 | 10 | 10 | 14.5 | 27.4 | 0.00 | 0.00 | 0.00 | 50 | 1015.1 |
| 20260502161503 | 10 | 357 | 12.9 | 20.9 | 0.00 | 0.00 | 0.00 | 53 | 1015.2 |
| 20260502161003 | 9 | 308 | 8.0 | 24.1 | 0.00 | 0.00 | 0.00 | 56 | 1015.3 |
| 20260502160502 | 8 | 341 | 14.5 | 32.2 | 0.00 | 0.00 | 0.00 | 55 | 1015.4 |
| 20260502152004 | 7 | 324 | 9.7 | 22.5 | 0.00 | 0.00 | 0.00 | 59 | 1015.5 |
| 20260502151503 | 7 | 332 | 12.9 | 22.5 | 0.00 | 0.00 | 0.00 | 61 | 1015.5 |
| 20260502151003 | 7 | 294 | 12.9 | 19.3 | 0.00 | 0.00 | 0.00 | 60 | 1015.5 |
| 20260502150503 | 7 | 348 | 12.9 | 20.9 | 0.00 | 0.00 | 0.00 | 61 | 1015.5 |
| 20260502130502 | 5 | 8 | 12.9 | 22.5 | 0.00 | 0.00 | 0.00 | 64 | 1015.4 |
| 20260502123503 | 5 | 12 | 16.1 | 25.7 | 0.00 | 0.00 | 0.00 | 65 | 1014.9 |
| 20260502123003 | 5 | 359 | 17.7 | 25.7 | 0.00 | 0.00 | 0.00 | 63 | 1015.1 |
| 20260502122503 | 5 | 359 | 12.9 | 25.7 | 0.00 | 0.00 | 0.00 | 62 | 1015.1 |
| 20260502122002 | 5 | 354 | 19.3 | 25.7 | 0.00 | 0.00 | 0.00 | 62 | 1015.1 |
| 20260502121503 | 5 | 355 | 19.3 | 25.7 | 0.00 | 0.00 | 0.00 | 62 | 1015.2 |
| 20260502121002 | 5 | 356 | 19.3 | 25.7 | 0.00 | 0.00 | 0.00 | 62 | 1015.2 |
| 20260502120503 | 5 | 337 | 11.3 | 24.1 | 0.00 | 0.00 | 0.00 | 63 | 1015.2 |
| 20260502115503 | 5 | 350 | 8.0 | 22.5 | 0.00 | 0.00 | 0.00 | 64 | 1015.1 |
| 20260502115002 | 5 | 348 | 12.9 | 22.5 | 0.00 | 0.00 | 0.00 | 64 | 1015.0 |
| 20260502114003 | 5 | 1 | 11.3 | 22.5 | 0.00 | 0.00 | 0.00 | 64 | 1015.0 |
| 20260502113502 | 5 | 359 | 16.1 | 22.5 | 0.00 | 0.00 | 0.00 | 63 | 1014.9 |
| 20260502113003 | 5 | 331 | 11.3 | 22.5 | 0.00 | 0.00 | 0.00 | 64 | 1014.8 |
| 20260502112503 | 5 | 10 | 16.1 | 22.5 | 0.00 | 0.00 | 0.00 | 63 | 1014.7 |
| 20260502112003 | 5 | 351 | 12.9 | 22.5 | 0.00 | 0.00 | 0.00 | 63 | 1014.8 |
| 20260502111002 | 5 | 20 | 12.9 | 20.9 | 0.00 | 0.00 | 0.00 | 62 | 1014.8 |
| 20260502110502 | 5 | 9 | 14.5 | 20.9 | 0.00 | 0.00 | 0.00 | 63 | 1014.7 |
| 20260502110003 | 5 | 348 | 8.0 | 19.3 | 0.00 | 0.00 | 0.00 | 65 | 1014.9 |
| 20260502105503 | 5 | 42 | 8.0 | 19.3 | 0.00 | 0.00 | 0.00 | 64 | 1014.7 |
| 20260502105003 | 5 | 8 | 9.7 | 19.3 | 0.00 | 0.00 | 0.00 | 63 | 1014.7 |
| 20260502104503 | 5 | 11 | 11.3 | 20.9 | 0.00 | 0.00 | 0.00 | 65 | 1014.7 |
| 20260502104002 | 5 | 356 | 14.5 | 20.9 | 0.00 | 0.00 | 0.00 | 64 | 1014.7 |
| 20260502103503 | 5 | 338 | 8.0 | 20.9 | 0.00 | 0.00 | 0.00 | 63 | 1014.8 |
| 20260502103003 | 5 | 328 | 8.0 | 14.5 | 0.00 | 0.00 | 0.00 | 63 | 1014.7 |
| 20260502102502 | 5 | 343 | 8.0 | 22.5 | 0.00 | 0.00 | 0.00 | 62 | 1014.9 |
| 20260502102003 | 5 | 341 | 6.4 | 22.5 | 0.00 | 0.00 | 0.00 | 62 | 1015.0 |
| 20260502101503 | 5 | 323 | 8.0 | 19.3 | 0.00 | 0.00 | 0.00 | 62 | 1014.9 |
| 20260502101003 | 5 | 2 | 9.7 | 20.9 | 0.00 | 0.00 | 0.00 | 63 | 1014.9 |
| 20260502100502 | 5 | 311 | 16.1 | 20.9 | 0.00 | 0.00 | 0.00 | 61 | 1014.9 |
| 20260502090503 | 6 | 10 | 8.0 | 22.5 | 0.00 | 0.00 | 0.00 | 69 | 1014.8 |
| 20260502071505 | 7 | 15 | 3.2 | 20.9 | 0.00 | 0.00 | 0.00 | 78 | 1014.6 |
| 20260502071003 | 7 | 20 | 4.8 | 22.5 | 0.00 | 0.00 | 0.00 | 77 | 1014.5 |
| 20260502070503 | 7 | 57 | 14.5 | 22.5 | 0.00 | 0.00 | 0.00 | 77 | 1014.6 |
| 20260502065503 | 7 | 52 | 3.2 | 19.3 | 0.00 | 0.00 | 0.00 | 77 | 1014.7 |
| 20260502065002 | 7 | 74 | 4.8 | 22.5 | 0.00 | 0.00 | 0.00 | 76 | 1014.6 |
| 20260502064503 | 7 | 53 | 8.0 | 22.5 | 0.00 | 0.00 | 0.00 | 76 | 1014.6 |
| 20260502063503 | 7 | 50 | 14.5 | 22.5 | 0.00 | 0.00 | 0.00 | 75 | 1014.6 |
| 20260502063004 | 7 | 82 | 1.6 | 19.3 | 0.00 | 0.00 | 0.00 | 75 | 1014.8 |
| 20260502062002 | 7 | 86 | 17.7 | 27.4 | 0.00 | 0.00 | 0.00 | 75 | 1014.9 |
| 20260502060503 | 7 | 30 | 6.4 | 19.3 | 0.00 | 0.00 | 0.00 | 75 | 1015.0 |
| 20260502060003 | 7 | 6 | 3.2 | 20.9 | 0.00 | 0.00 | 0.00 | 75 | 1015.1 |
| 20260502055503 | 7 | 92 | 6.4 | 20.9 | 0.00 | 0.00 | 0.00 | 74 | 1015.1 |
| 20260502055002 | 7 | 11 | 8.0 | 19.3 | 0.00 | 0.00 | 0.00 | 74 | 1015.1 |
| 20260502054503 | 8 | 82 | 1.6 | 19.3 | 0.00 | 0.00 | 0.00 | 74 | 1015.0 |
| 20260502054003 | 8 | 40 | 4.8 | 14.5 | 0.00 | 0.00 | 0.00 | 74 | 1014.8 |
| 20260502053503 | 8 | 44 | 6.4 | 20.9 | 0.00 | 0.00 | 0.00 | 74 | 1014.9 |
| 20260502053004 | 8 | 97 | 8.0 | 22.5 | 0.00 | 0.00 | 0.00 | 74 | 1015.0 |
| 20260502052003 | 8 | 82 | 8.0 | 20.9 | 0.00 | 0.00 | 0.00 | 75 | 1015.0 |
| 20260502051503 | 8 | 69 | 11.3 | 22.5 | 0.00 | 0.00 | 0.00 | 75 | 1014.9 |
| 20260502051003 | 8 | 78 | 6.4 | 22.5 | 0.00 | 0.00 | 0.00 | 76 | 1014.9 |
| 20260502050504 | 8 | 70 | 1.6 | 14.5 | 0.00 | 0.00 | 0.00 | 76 | 1014.9 |
| 20260502050003 | 8 | 346 | 4.8 | 16.1 | 0.00 | 0.00 | 0.00 | 76 | 1014.9 |
| 20260502045502 | 8 | 58 | 6.4 | 16.1 | 0.00 | 0.00 | 0.00 | 76 | 1014.9 |
| 20260502045003 | 8 | 19 | 9.7 | 14.5 | 0.00 | 0.00 | 0.00 | 77 | 1015.0 |
| 20260502044504 | 8 | 152 | 4.8 | 9.7 | 0.00 | 0.00 | 0.00 | 76 | 1015.0 |
| 20260502044003 | 8 | 0 | 0.0 | 8.0 | 0.00 | 0.00 | 0.00 | 76 | 1015.1 |
| 20260502043503 | 8 | 100 | 1.6 | 8.0 | 0.00 | 0.00 | 0.00 | 77 | 1015.0 |
| 20260502043003 | 8 | 350 | 3.2 | 16.1 | 0.00 | 0.00 | 0.00 | 76 | 1015.0 |
| 20260502042503 | 9 | 91 | 4.8 | 16.1 | 0.00 | 0.00 | 0.00 | 77 | 1014.8 |
| 20260502042003 | 9 | 74 | 4.8 | 19.3 | 0.00 | 0.00 | 0.00 | 77 | 1014.9 |
| 20260502041503 | 9 | 36 | 3.2 | 22.5 | 0.00 | 0.00 | 0.00 | 76 | 1014.8 |
| 20260502041003 | 9 | 11 | 16.1 | 22.5 | 0.00 | 0.00 | 0.00 | 76 | 1014.9 |
| 20260502040012 | 9 | 42 | 3.2 | 14.5 | 0.00 | 0.00 | 0.00 | 76 | 1014.9 |
| 20260502035504 | 9 | 166 | 0.0 | 11.3 | 0.00 | 0.00 | 0.00 | 76 | 1014.9 |
| 20260502034503 | 10 | 117 | 1.6 | 8.0 | 0.00 | 0.00 | 0.00 | 75 | 1015.0 |
| 20260502033003 | 10 | 11 | 3.2 | 24.1 | 0.00 | 0.00 | 0.00 | 74 | 1015.0 |
| 20260502032503 | 10 | 356 | 11.3 | 24.1 | 0.00 | 0.00 | 0.00 | 73 | 1014.9 |
| 20260502032003 | 10 | 355 | 3.2 | 24.1 | 0.00 | 0.00 | 0.00 | 73 | 1014.9 |
| 20260502031503 | 10 | 353 | 12.9 | 22.5 | 0.00 | 0.00 | 0.00 | 72 | 1014.8 |
| 20260502031003 | 10 | 4 | 9.7 | 20.9 | 0.00 | 0.00 | 0.00 | 72 | 1014.8 |
| 20260502030504 | 10 | 345 | 6.4 | 20.9 | 0.00 | 0.00 | 0.00 | 71 | 1014.8 |
| 20260502030003 | 10 | 317 | 12.9 | 25.7 | 0.00 | 0.00 | 0.00 | 70 | 1014.7 |
| 20260502024503 | 11 | 343 | 8.0 | 16.1 | 0.00 | 0.00 | 0.00 | 70 | 1014.8 |
| 20260502024004 | 10 | 337 | 8.0 | 16.1 | 0.00 | 0.00 | 0.00 | 71 | 1014.9 |
| 20260502023503 | 10 | 333 | 8.0 | 14.5 | 0.00 | 0.00 | 0.00 | 74 | 1014.8 |
| 20260502023003 | 10 | 220 | 1.6 | 4.8 | 0.00 | 0.00 | 0.00 | 78 | 1014.6 |
| 20260502022003 | 11 | 0 | 0.0 | 4.8 | 0.00 | 0.00 | 0.00 | 76 | 1014.3 |
| 20260502021003 | 11 | 300 | 3.2 | 8.0 | 0.00 | 0.00 | 0.00 | 76 | 1014.2 |
| 20260502020503 | 11 | 205 | 1.6 | 4.8 | 0.00 | 0.00 | 0.00 | 74 | 1013.9 |
| 20260502020004 | 11 | 206 | 3.2 | 8.0 | 0.00 | 0.00 | 0.00 | 75 | 1013.8 |
| 20260502015504 | 11 | 206 | 3.2 | 8.0 | 0.00 | 0.00 | 0.00 | 75 | 1013.7 |
| 20260502015003 | 11 | 205 | 1.6 | 8.0 | 0.00 | 0.00 | 0.00 | 74 | 1013.8 |
| 20260502014503 | 11 | 206 | 3.2 | 9.7 | 0.00 | 0.00 | 0.00 | 75 | 1013.8 |
| 20260502014003 | 11 | 204 | 6.4 | 9.7 | 0.00 | 0.00 | 0.00 | 74 | 1013.8 |
| 20260502013503 | 11 | 201 | 3.2 | 8.0 | 0.00 | 0.00 | 0.00 | 75 | 1013.8 |
| 20260502013004 | 11 | 201 | 4.8 | 8.0 | 0.00 | 0.00 | 0.00 | 75 | 1013.9 |
| 20260502012503 | 11 | 199 | 3.2 | 8.0 | 0.00 | 0.00 | 0.00 | 75 | 1013.8 |
| 20260502012003 | 11 | 198 | 3.2 | 8.0 | 0.00 | 0.00 | 0.00 | 75 | 1013.7 |
| 20260502011504 | 11 | 199 | 4.8 | 8.0 | 0.00 | 0.00 | 0.00 | 74 | 1013.6 |
| 20260502011003 | 11 | 198 | 3.2 | 8.0 | 0.00 | 0.00 | 0.00 | 74 | 1013.6 |
| 20260502010503 | 11 | 199 | 4.8 | 8.0 | 0.00 | 0.00 | 0.00 | 73 | 1013.5 |
| 20260502010003 | 11 | 200 | 3.2 | 8.0 | 0.00 | 0.00 | 0.00 | 73 | 1013.5 |
| 20260502005503 | 11 | 200 | 4.8 | 9.7 | 0.00 | 0.00 | 0.00 | 72 | 1013.4 |
| 20260502005003 | 11 | 200 | 3.2 | 12.9 | 0.00 | 0.00 | 0.00 | 71 | 1013.3 |
| 20260502004504 | 11 | 206 | 4.8 | 12.9 | 0.00 | 0.00 | 0.00 | 71 | 1013.2 |
| 20260502004003 | 11 | 203 | 4.8 | 8.0 | 0.00 | 0.00 | 0.00 | 71 | 1013.0 |
| 20260502003503 | 11 | 208 | 4.8 | 8.0 | 0.00 | 0.00 | 0.00 | 71 | 1013.1 |
| 20260502003003 | 11 | 208 | 4.8 | 8.0 | 0.00 | 0.00 | 0.00 | 70 | 1013.0 |
| 20260502002503 | 12 | 208 | 4.8 | 9.7 | 0.00 | 0.00 | 0.00 | 69 | 1012.9 |
| 20260502001503 | 12 | 210 | 6.4 | 9.7 | 0.00 | 0.00 | 0.00 | 68 | 1012.7 |
| 20260502001003 | 12 | 181 | 3.2 | 9.7 | 0.00 | 0.00 | 0.00 | 68 | 1012.7 |
| 20260502000503 | 12 | 158 | 4.8 | 9.7 | 0.00 | 0.00 | 0.00 | 66 | 1012.7 |
| 20260502000004 | 12 | 172 | 4.8 | 12.9 | 0.00 | 0.00 | 0.00 | 65 | 1012.5 |
| 20260501235503 | 13 | 163 | 4.8 | 12.9 | 0.00 | 0.00 | 0.00 | 64 | 1012.4 |
| 20260501235005 | 13 | 164 | 6.4 | 12.9 | 0.00 | 0.00 | 0.00 | 64 | 1012.2 |
| 20260501234503 | 13 | 158 | 4.8 | 12.9 | 0.00 | 0.00 | 0.00 | 63 | 1012.2 |
| 20260501234003 | 13 | 168 | 8.0 | 14.5 | 0.00 | 0.00 | 0.00 | 63 | 1012.1 |
| 20260501233503 | 13 | 169 | 6.4 | 16.1 | 0.00 | 0.00 | 0.00 | 62 | 1012.1 |
| 20260501233003 | 14 | 147 | 8.0 | 16.1 | 0.00 | 0.00 | 0.00 | 61 | 1012.1 |
| 20260501232503 | 14 | 176 | 9.7 | 14.5 | 0.00 | 0.00 | 0.00 | 59 | 1012.0 |
| 20260501232003 | 14 | 166 | 8.0 | 14.5 | 0.00 | 0.00 | 0.00 | 59 | 1012.1 |
| 20260501231503 | 15 | 198 | 8.0 | 14.5 | 0.00 | 0.00 | 0.00 | 58 | 1012.2 |
| 20260501231003 | 15 | 161 | 6.4 | 19.3 | 0.00 | 0.00 | 0.00 | 57 | 1012.1 |
| 20260501230503 | 15 | 177 | 6.4 | 19.3 | 0.00 | 0.00 | 0.00 | 56 | 1012.1 |
| 20260501225504 | 16 | 222 | 8.0 | 14.5 | 0.00 | 0.00 | 0.00 | 53 | 1012.0 |
| 20260501225003 | 15 | 197 | 8.0 | 14.5 | 0.00 | 0.00 | 0.00 | 52 | 1012.1 |
| 20260501224005 | 15 | 215 | 11.3 | 16.1 | 0.00 | 0.00 | 0.00 | 52 | 1012.1 |
| 20260501223503 | 16 | 230 | 4.8 | 11.3 | 0.00 | 0.00 | 0.00 | 53 | 1012.2 |
| 20260501223004 | 16 | 248 | 6.4 | 22.5 | 0.00 | 0.00 | 0.00 | 52 | 1012.1 |
| 20260501222004 | 16 | 253 | 6.4 | 22.5 | 0.00 | 0.00 | 0.00 | 51 | 1012.2 |
| 20260501221003 | 16 | 240 | 8.0 | 19.3 | 0.00 | 0.00 | 0.00 | 51 | 1012.3 |
| 20260501220504 | 16 | 241 | 9.7 | 24.1 | 0.00 | 0.00 | 0.00 | 49 | 1012.3 |
| 20260501220004 | 16 | 286 | 14.5 | 24.1 | 0.00 | 0.00 | 0.00 | 47 | 1012.3 |
| 20260501214504 | 16 | 163 | 4.8 | 14.5 | 0.00 | 0.00 | 0.00 | 55 | 1012.4 |
| 20260501214003 | 16 | 176 | 8.0 | 24.1 | 0.00 | 0.00 | 0.00 | 53 | 1012.5 |
| 20260501213503 | 16 | 171 | 8.0 | 24.1 | 0.00 | 0.00 | 0.00 | 52 | 1012.5 |
| 20260501213003 | 16 | 143 | 12.9 | 22.5 | 0.00 | 0.00 | 0.00 | 52 | 1012.5 |
| 20260501212504 | 16 | 172 | 6.4 | 22.5 | 0.00 | 0.00 | 0.00 | 53 | 1012.6 |
| 20260501212003 | 16 | 237 | 17.7 | 29.0 | 0.00 | 0.00 | 0.00 | 55 | 1012.5 |
| 20260501211504 | 16 | 172 | 9.7 | 29.0 | 0.00 | 0.00 | 0.00 | 53 | 1012.5 |